Regional Weather Roundup
Issued by NWS

Home | Current Version | Previous Version | Graphics & Text | Print | Product List | Glossary On
Versions: 1 2 3 4 5 6 7 8 9 10 11 12 13 14 15 16 17 18 19 20 21 22 23 24 25 26 27 28 29 30 31 32 33 34 35 36 37 38 39 40 41 42 43 44 45 46 47 48 49 50
742
ASUS43 KMPX 231410
RWRMN
WEATHER ROUNDUP FOR MINNESOTA
NATIONAL WEATHER SERVICE TWIN CITIES/CHANHASSEN MN
900 AM CDT MON APR 23 2018


NOTE: "FAIR" INDICATES FEW OR NO CLOUDS BELOW 12,000 FEET WITH NO
SIGNIFICANT WEATHER AND/OR OBSTRUCTIONS TO VISIBILITY. N/A MEANS
CURRENT SKY AND/OR WEATHER CONDITIONS ARE NOT AVAILABLE.

MNZ060>063-068>070-231500-
   Twin Cities Metro

CITY           SKY/WX    TMP DP  RH WIND       PRES   REMARKS
TWIN CITIES    FAIR      51  34  52 S5        30.25F
ST PAUL        FAIR      50  35  56 E7        30.27S
CRYSTAL        FAIR      53  33  46 S7        30.24F
BLAINE         SUNNY     52  36  54 S6        30.25S
LAKEVILLE      FAIR      48  37  66 CALM      30.25S
EDEN PRAIRIE   FAIR      50  35  56 VRB3      30.24F
SOUTH ST PAUL  FAIR      49  35  58 SE3       30.25F
LAKE ELMO      FAIR      50  34  53 S3        30.27S
$$
MNZ001>005-007-008-013>017-022>024-027-028-231500-
   Northwest Minnesota

CITY           SKY/WX    TMP DP  RH WIND       PRES   REMARKS
BEMIDJI        FAIR      52  36  54 W8        30.18S
HALLOCK        FAIR      48  37  66 NW12      30.19S
ROSEAU         FAIR      48  39  71 NW9       30.16S
WARROAD        FAIR      48  41  76 W9        30.16R
THIEF RVR FALL FAIR      44  39  82 W7        30.20R
CROOKSTON      FAIR      45  39  81 SW5       30.20S
FOSSTON        FAIR      46  37  71 SW10      30.20R
DETROIT LAKES  FAIR      46  36  66 CALM      30.22S
MOORHEAD       FAIR      43  37  81 S6        30.22F
PARK RAPIDS    FAIR      50  37  61 SW6       30.20S
MAHNOMEN       FAIR      48  38  69 SW10      30.19F
$$
MNZ006-009>011-018-025>026-231500-
   North Central Minnesota

CITY           SKY/WX    TMP DP  RH WIND       PRES   REMARKS
BAUDETTE       FAIR      50  39  66 W8        30.14S
FLAG ISLAND    FAIR      45  34  65 NW14      30.13R
INTL FALLS     FAIR      51  37  58 W9        30.14S
WASKISH        FAIR      45  37  76 W8        30.17S
BIG FORK       FAIR      50  37  62 SW7       30.18S
LONGVILLE      FAIR      48  36  61 SW6       30.20F
GRAND RAPIDS   FAIR      52  32  46 W7        30.22S
CRANE LAKE     PTSUNNY   48  34  57 SW7       30.18S
ORR            CLOUDY    46  32  57 CALM      30.15F
COOK           CLOUDY    48  36  61 SW7       30.18F
WALKER         FAIR      51  35  55 W10       30.19F
$$
MNZ012-019>021-037-231500-
   Northeast Minnesota

CITY           SKY/WX    TMP DP  RH WIND       PRES   REMARKS
DULUTH         FAIR      54  40  59 W13       30.22S
ELY            CLOUDY    48  30  49 SW8       30.18F
HIBBING        FAIR      47  33  58 VRB3      30.20S
EVELETH        FAIR      49  35  56 W7        30.21F
DULUTH HARBOR  FAIR      46  36  66 SW3       30.24S
TWO HARBORS    FAIR      57  43  58 SW9       30.19F
SILVER BAY     FAIR      54  37  54 S3        30.19F
GRAND MARAIS     N/A     36  30  79 SW9       30.21F
G MARAIS ARPRT FAIR      48  30  49 SW7       30.19F
$$
MNZ029>031-032-039>041-046>048-054>057-064-231500-
   West Central Minnesota

CITY           SKY/WX    TMP DP  RH WIND       PRES   REMARKS
FERGUS FALLS   FAIR      46  37  71 S6        30.20F
WHEATON        SUNNY     46  39  76 SE6       30.23F
MORRIS         SUNNY     46  39  76 SE7       30.22S
ALEXANDRIA     FAIR      52  36  54 SW9       30.23S
ELBOW LAKE     FAIR      47  39  73 CALM      30.23S
WADENA         FAIR      48  37  66 SW3       30.21S
GLENWOOD       FAIR      48  37  66 S5        30.24S
APPLETON       SUNNY     46  37  71 CALM      30.23S
BENSON         SUNNY     48  37  66 CALM      30.25S
ORTONVILLE     SUNNY     45  39  81 SE6       30.22S
MADISON        SUNNY     46  39  76 CALM      30.22S
WILLMAR        FAIR      48  43  81 CALM      30.26S
$$
MNZ033>034-036-042>043-049>051-058-059-231500-
   Central Minnesota

CITY           SKY/WX    TMP DP  RH WIND       PRES   REMARKS
ST CLOUD       FAIR      46  41  82 CALM      30.24S
SAUK CENTRE    FAIR      45  39  79 CALM      30.24S
PAYNESVILLE    FAIR      50  43  78 CALM      30.24F
AITKIN         FAIR      50  36  57 SW6       30.21S
PINE RIVER     FAIR      50  36  57 SW6       30.24S
BRAINERD       FAIR      50  36  58 SW5       30.23S
STAPLES        FAIR      48  36  61 S3        30.22F
LONG PRAIRIE   FAIR      46  36  66 S7        30.23F
LITTLE FALLS   FAIR      45  34  65 CALM      30.24S
LITCHFIELD     FAIR      50  45  81 SE3       30.24S
BUFFALO        FAIR      50  38  63 SE3       30.25S
MAPLE LAKE     FAIR      49  43  78 CALM      30.25S
HUTCHINSON     FAIR      48  44  85 SE3       30.25S
$$
MNZ037-044-045-052-053-231500-
   East Central Minnesota

CITY           SKY/WX    TMP DP  RH WIND       PRES   REMARKS
PRINCETON      FAIR      52  39  62 CALM      30.25S
MORA           FAIR      45  36  70 S3        30.26F
CAMBRIDGE      FAIR      54  37  54 CALM      30.25S
RUSH CITY      FAIR      48  37  65 CALM      30.26S
MOOSE LAKE     FAIR      45  34  65 SW5       30.22S
HINCKLEY       FAIR      46  36  66 CALM      30.25S
CLOQUET        FAIR      54  36  50 SW8       30.22S
MCGREGOR       FAIR      50  37  62 W6        30.23S
$$
MNZ071>073-080-081-089-090-097-098-231500-
   Southwest Minnesota

CITY           SKY/WX    TMP DP  RH WIND       PRES   REMARKS
MONTEVIDEO     SUNNY     50  39  66 SW5       30.23S
GRANITE FALLS  MOSUNNY   46  40  81 SE3       30.25R
CANBY          SUNNY     45  37  74 CALM      30.23S
MARSHALL       SUNNY     46  37  71 SE6       30.23S
REDWOOD FALLS  SUNNY     44  41  89 SE6       30.23F
OLIVIA         SUNNY     50  45  81 SE6       30.23S
PIPESTONE      SUNNY    N/A N/A N/A S5        30.22S
WINDOM         SUNNY     48  28  46 S3        30.24R
WORTHINGTON    MOSUNNY   47  38  71 S5        30.24S
JACKSON        SUNNY     46  36  66 S8        30.24S
TRACY          SUNNY     47  38  71 S10       30.22S
SLAYTON        SUNNY     42  38  87 CALM      30.24S
$$
MNZ065>067-074>077-082>085-091>093-231500-
   South Central Minnesota

CITY           SKY/WX    TMP DP  RH WIND       PRES   REMARKS
MANKATO        FAIR      48  34  58 S8        30.25S
NEW ULM        SUNNY     45  37  76 S5        30.24S
ST JAMES       SUNNY     41  37  87 CALM      30.26R
FAIRMONT       SUNNY     41  36  82 S3        30.25S
GLENCOE        FAIR      48  40  73 CALM      30.24F
OWATONNA       FAIR      52  36  54 S6        30.25S
WASECA         FAIR      48  36  61 SE6       30.26S
ALBERT LEA     FAIR      48  30  49 SE3       30.25F
$$
MNZ078>079-086>088-094>096-231500-
   Southeast Minnesota

CITY           SKY/WX    TMP DP  RH WIND       PRES   REMARKS
ROCHESTER      FAIR      47  35  63 SE6       30.27S
RED WING       FAIR      48  30  49 SE5       30.26F
STANTON        FAIR      48  39  71 CALM      30.25S
DODGE CENTER   FAIR      48  36  61 SE5       30.26S
WINONA         FAIR      46  36  66 CALM      30.26F
AUSTIN         FAIR      48  37  66 CALM      30.25S
PRESTON        FAIR      40  29  65 CALM      30.27F
$$
ABBREVIATIONS USED IN REMARKS
   TC - TEMPERATURES IN CELSIUS
  WCI - WIND CHILL INDEX
   HX - HEAT INDEX
  VSB - VISIBILITY
$$




USA.gov is the U.S. government's official web portal to all federal, state and local government web resources and services.